Location: Edmonton
(53.5500°N, 113.5000°W)
Time: 02:03:55
(UTC-07:00)

Daily predictions for brighter satellites

Satellite Brightness Start Highest point End
(mag) Time Altitude Azimuth Time Altitude Azimuth Time Altitude Azimuth
Cosmos 2263 Rocket 4.5 02:42:05 18° N 02:42:05 18° N 02:44:24 10° NNE
SL-16 R/B 4.4 03:02:35 21° NNW 03:02:35 21° NNW 03:04:26 10° NNW
Resurs 1-4 Rocket 4.0 02:56:32 10° NNE 02:58:59 27° NNE 02:58:59 27° NNE
CZ-2D R/B 3.9 02:57:52 10° NNE 03:00:29 28° NE 03:00:29 28° NE
Cosmos 2278 Rocket 3.8 03:10:59 29° NNE 03:10:59 29° NNE 03:13:51 10° NNE
Cosmos 2369 Rocket 4.2 03:10:53 21° E 03:10:53 21° E 03:14:48 10° NE
Cosmos 2344 4.1 03:19:02 56° NW 03:19:44 58° NNW 03:29:48 10° NE
Okean O Rocket 3.9 03:32:26 10° NE 03:35:07 22° ENE 03:35:07 22° ENE
Lacrosse 4 Rocket 4.1 03:40:45 16° NNE 03:40:45 16° NNE 03:41:37 10° NNE
Iridium 4 Rocket 4.5 03:32:27 10° N 03:37:30 52° ENE 03:37:30 52° ENE
ATLAS 5 CENTAUR R/B 4.0 03:46:07 19° ESE 03:46:16 19° ESE 03:49:51 10° ENE
Lacrosse 5 rocket 4.1 03:52:40 14° ENE 03:52:40 14° ENE 03:53:13 10° E
Cosmos 1943 Rocket 4.1 03:51:42 18° SE 03:53:49 23° ESE 03:58:03 10° NE
Lacrosse 5 4.0 03:58:26 17° SE 03:58:42 17° SE 04:01:56 10° E
Cosmos 2266 Rocket 4.1 03:53:58 10° N 04:00:10 71° ENE 04:01:09 60° SE
Cosmos 2180 Rocket 4.4 04:07:37 86° E 04:07:37 86° E 04:13:55 10° NNE
ADEOS Rocket 3.0 04:03:29 10° NNE 04:10:28 77° WNW 04:10:28 77° WNW
ARIANE 5 R/B 4.0 04:06:18 10° N 04:08:47 27° N 04:08:47 27° N
Cosmos 2279 Rocket 3.9 04:11:47 73° NNW 04:11:47 73° NNW 04:17:36 10° N
Cosmos 1908 Rocket 4.5 04:13:16 10° N 04:17:38 48° ENE 04:17:57 47° E
ADEOS II 3.0 04:14:23 10° NNE 04:19:27 45° E 04:21:41 29° SSE
Sich 1 Rocket 4.3 04:15:33 10° N 04:20:01 52° ENE 04:20:05 52° ENE
Cosmos 921 Rocket 3.8 04:23:32 48° ENE 04:23:32 48° ENE 04:26:54 10° NNE
Cosmos 2297 Rocket 4.2 04:25:15 10° NNW 04:29:55 25° NE 04:34:34 10° E
Cosmos 676 Rocket 3.9 04:30:11 10° NNW 04:35:32 87° ENE 04:40:52 10° SSE
Resurs 1-4 Rocket 3.4 04:36:46 10° N 04:40:04 27° NNW 04:40:04 27° NNW
CZ-4B DEB 4.4 04:36:21 10° NNE 04:41:54 69° ESE 04:44:37 31° S
CZ-2D R/B 3.3 04:38:22 10° N 04:41:49 28° NW 04:41:49 28° NW
Cosmos 2219 3.4 04:39:37 10° NNW 04:45:21 70° NE 04:50:59 10° SE
Cosmos 1140 Rocket 3.6 04:43:17 10° NNW 04:48:32 74° ENE 04:53:46 10° SSE
Okean 2 Rocket 4.1 04:44:52 10° N 04:49:07 45° ENE 04:53:20 10° SE
Cosmos 2227 Rocket 3.7 04:45:12 10° NNW 04:50:25 35° NE 04:55:37 10° ESE
Cosmos 2278 Rocket 3.8 04:52:49 19° NW 04:53:37 20° NNW 04:57:44 10° NNE
Cosmos 2369 Rocket 2.1 04:52:42 55° SW 04:54:02 84° WNW 04:59:45 10° NNE
Cosmos 614 Rocket 4.2 04:50:03 10° NNW 04:55:08 66° ENE 05:00:13 10° SE
MOS 1 Rocket 3.5 04:49:48 10° N 04:55:15 69° WNW 04:56:14 56° SW
Cosmos 1862 Rocket 3.4 04:55:29 79° NW 04:55:29 79° NW 04:59:41 10° N
CZ-4C R/B 4.1 04:52:40 10° S 04:57:08 27° ESE 05:02:04 10° ENE
Cosmos 2084 Rocket 4.3 05:02:46 33° NNW 05:02:46 33° NNW 05:05:53 10° NE
Cosmos 1867 3.5 05:02:22 52° WSW 05:03:43 80° NW 05:09:14 10° NE
IRAS Rocket 4.1 04:58:33 10° NNE 05:04:04 78° WNW 05:06:20 37° SSW
Cosmos 1703 Rocket 4.2 05:00:08 12° S 05:04:05 54° E 05:08:23 10° NNE
IRS-1C Rocket 4.0 05:01:37 10° NNE 05:06:54 74° WNW 05:08:55 38° SW
Okean O Rocket 1.7 05:08:22 10° N 05:12:35 52° WNW 05:12:35 52° WNW
ERS-2 2.0 05:10:28 10° NNE 05:14:13 90° SSW 05:14:51 60° SSW
Cosmos 2242 Rocket 4.5 05:16:30 33° NW 05:16:30 33° NW 05:19:52 10° N
SL-24 R/B 3.9 05:12:29 10° N 05:16:18 59° WNW 05:16:31 58° W
Lacrosse 4 Rocket 3.4 05:17:05 16° NNW 05:17:17 16° NNW 05:19:49 10° NNE
CZ-4B R/B 4.4 05:13:49 10° NNE 05:17:41 57° E 05:21:43 10° S
Cosmos 1850 Rocket 4.1 05:12:32 10° NNW 05:17:57 82° ENE 05:23:16 10° SSE
Cosmos 1624 Rocket 4.0 05:18:48 36° SW 05:21:00 70° WNW 05:26:21 10° NNE
Cosmos 2056 Rocket 3.4 05:20:22 34° SW 05:22:36 72° WNW 05:27:51 10° NNE
BREEZE M DEB (TANK) 4.4 05:14:10 24° WSW 05:22:58 61° S 05:27:49 10° E
Cosmos 1933 3.4 05:23:31 51° W 05:23:44 52° WNW 05:27:45 10° N
Cosmos 1954 Rocket 4.1 05:19:51 10° NW 05:24:59 51° WSW 05:30:07 10° S
Cosmos 1553 Rocket 4.5 05:19:32 10° S 05:25:40 63° E 05:31:55 10° NNE
Meteor 2-10 Rocket 3.5 05:23:20 10° S 05:28:20 81° ESE 05:33:30 10° NNE
Lacrosse 5 rocket 0.8 05:28:23 56° WNW 05:29:05 85° SSW 05:32:41 10° ESE
ATLAS 5 CENTAUR R/B 1.9 05:27:41 31° SW 05:30:08 86° SE 05:35:35 10° NE
COSMO-SKYMED 1 2.6 05:26:39 10° SSE 05:30:59 81° ENE 05:35:21 10° NNW
Cosmos 972 Rocket 4.2 05:31:24 30° SW 05:33:53 56° WNW 05:39:34 10° NNE
CZ-4B R/B 3.7 05:31:55 10° N 05:35:28 32° WNW 05:35:28 32° WNW
Cosmos 1943 Rocket 2.1 05:33:16 22° SW 05:36:59 78° WNW 05:42:36 10° NNE
CZ-4B R/B 3.4 05:31:35 10° N 05:36:59 51° WNW 05:40:37 21° SW
Cosmos 2221 Rocket 3.6 05:32:25 10° S 05:37:00 87° E 05:41:35 10° NNE
Meteor 1-28 Rocket 3.5 05:34:37 10° SSE 05:38:19 68° ENE 05:42:05 10° N
Lacrosse 5 2.2 05:37:39 22° SW 05:40:52 60° SE 05:45:53 10° ENE
Cosmos 2263 4.3 05:39:02 26° WSW 05:42:07 57° NW 05:47:42 10° NNE
Meteor 1-20 Rocket 4.1 05:36:47 10° NNW 05:42:34 79° W 05:48:12 10° S
Abrixas 3.7 05:43:46 27° S 05:44:10 28° S 05:46:43 10° ESE
Cosmos 2082 4.1 05:45:26 10° NNW 05:51:08 67° NE 05:56:45 10° SE
Okean 1-7 2.9 05:48:13 10° SSW 05:52:29 78° W 05:56:47 10° N
PSLV R/B 4.3 05:50:28 10° N 05:54:12 31° WNW 05:55:33 25° W
Cosmos 1782 3.4 05:50:19 10° S 05:54:13 60° E 05:58:10 10° NNE
USA 234 3.6 05:47:46 10° ENE 05:54:16 63° SE 06:00:44 10° SW
ADEOS Rocket 4.4 05:49:44 10° N 05:54:53 23° NW 05:57:25 18° WNW
DMSP B5D1-3 4.4 05:51:19 10° SSE 05:56:26 78° WSW 06:01:34 10° NNW
Thor Agena Rocket 3.9 05:51:36 10° SSW 05:56:27 39° W 06:01:17 10° NNW
ADEOS II 2.7 05:54:20 10° N 05:59:07 36° WNW 06:02:39 17° WSW
Cosmos 1782 Rocket 4.2 05:57:04 10° NNW 06:01:05 33° W 06:05:03 10° SSW
Cosmos 921 Rocket 4.3 06:00:21 21° WNW 06:01:20 23° NW 06:04:45 10° N
Cosmos 1606 3.5 05:57:55 10° S 06:01:44 56° E 06:05:35 10° NNE
Cosmos 1452 Rocket 3.5 05:58:35 10° SSW 06:03:52 74° WNW 06:09:11 10° NNE
Cosmos 1745 Rocket 4.0 06:02:14 10° NNW 06:08:15 56° W 06:14:13 10° S
Okean-O 2.9 06:04:37 10° N 06:08:54 48° WNW 06:13:09 10° SW
Cosmos 1741 Rocket 4.3 06:04:12 10° NW 06:09:10 45° WSW 06:14:09 10° S
Cosmos 1300 Rocket 3.9 06:05:31 10° N 06:09:58 71° ENE 06:14:23 10° SSE
Cosmos 1386 Rocket 4.4 06:06:35 10° NNW 06:12:35 66° W 06:18:36 10° S
Cosmos 2263 Rocket 4.4 06:08:43 10° NNW 06:12:44 19° NNE 06:16:44 10° ENE
Meteor 1-31 Rocket 3.3 06:09:38 10° N 06:13:17 38° WNW 06:16:54 10° SW
Cosmos 2297 Rocket 2.3 06:09:07 10° NNW 06:14:49 83° NE 06:20:29 10° SSE
SKYMED 2 4.0 06:15:09 10° SSW 06:19:12 38° W 06:23:17 10° NNW
Meteor 2-6 Rocket 4.3 06:15:24 10° S 06:20:46 79° E 06:26:15 10° NNE
ATLAS 3B R/B 3.9 06:17:34 10° SSW 06:24:44 50° ESE 06:31:38 10° NE
Okean 2 Rocket 4.1 06:23:24 10° NNW 06:26:59 25° W 06:30:33 10° SW
CZ-4 R/B 3.2 06:24:39 10° NNE 06:28:35 37° E 06:32:26 10° SSE
Cosmos 2219 4.1 06:24:24 10° NW 06:29:03 27° WSW 06:33:40 10° SSW
Cosmos 1674 Rocket 3.8 06:28:47 10° S 06:33:11 75° E 06:37:39 10° NNE
Cosmos 2227 Rocket 2.3 06:29:14 10° NW 06:34:51 62° WSW 06:40:25 10° SSE
USA 81 4.1 06:29:54 10° SSW 06:35:06 59° W 06:40:21 10° N
CZ-2C R/B 3.4 06:32:37 10° NNE 06:37:22 51° E 06:42:14 10° S
Cosmos 2369 Rocket 3.4 06:34:30 11° W 06:38:54 26° NW 06:43:36 10° NNE
Cosmos 2278 Rocket 4.3 06:37:21 10° NNW 06:40:05 13° N 06:42:50 10° NNE
Cosmos 1656 Rocket 3.8 06:35:45 10° SW 06:41:22 58° NW 06:46:59 10° NNE
Meteor 1-11 Rocket 3.9 06:37:13 10° NNW 06:43:09 64° W 06:48:58 10° S
CZ-4C R/B 2.3 06:39:24 10° SW 06:44:58 82° NW 06:51:25 10° NE
Okean 1 Rocket 3.0 06:41:29 10° NNW 06:45:55 71° W 06:50:16 10° S
Cosmos 2151 Rocket 4.3 06:42:28 10° NNW 06:46:28 31° W 06:50:25 10° SSW
ERS-2 4.1 06:45:36 10° NNW 06:47:23 13° NW 06:49:09 10° W
Okean O Rocket 3.7 06:47:36 10° NW 06:48:04 10° NW 06:48:32 10° NW
Cosmos 1633 3.1 06:48:39 10° NNW 06:52:01 35° W 06:55:20 10° SSW
Meteor 1-10 Rocket 4.3 06:47:04 10° SSW 06:52:35 58° WNW 06:58:13 10° N
PAYLOAD A 3.8 06:49:56 10° NNE 06:54:41 86° WNW 06:59:28 10° SSW
